Location: Invercargill
(46.4000°S, 168.3500°E)
Time: 15:38:52
(UTC+13:00)

ISS - Pass Details

Date: 30 January 2019
Orbit: 403 x 411 km, 51.6° (Epoch: 17 February)

Event Time Altitude Azimuth Distance (km) Brightness Sun altitude
Exits shadow 05:25:54 - 353° (N) 1,526 -1.3 -10.7°
Reaches altitude 10° 05:26:02 10° 355° (N) 1,487 -1.4 -10.7°
Maximum altitude 05:28:31 20° 43° (NE) 1,044 -1.7 -10.4°
Drops below altitude 10° 05:31:01 10° 91° (E) 1,496 -0.1 -10.0°
Sets 05:33:29 0° 109° (ESE) 2,364 1.6 -9.7°
